Time,TemperatureF,DewpointF,PressureIn,WindDirection,WindDirectionDegrees,WindSpeedMPH,WindSpeedGustMPH,Humidity,HourlyPrecipIn,Conditions,Clouds,dailyrainin,SolarRadiationWatts/m^2,SoftwareType,DateUTC
2013-04-19 00:01:00,60.5,49.5,30.01,NNE,33,19.6,19.6,67,0.00,RA,SKC,0.00,0.0,WeatherDisplay:10.37,2013-04-19 05:01:00,
2013-04-19 00:06:00,60.4,49.8,30.01,NE,37,19.6,19.6,68,0.00,RA,SKC,0.00,0.0,WeatherDisplay:10.37,2013-04-19 05:06:00,
2013-04-19 00:11:00,60.3,49.3,30.02,NE,34,24.2,24.2,67,0.00,CLR,SKC,0.00,0.0,WeatherDisplay:10.37,2013-04-19 05:11:00,
2013-04-19 00:16:00,60.1,49.5,30.02,NE,37,19.6,19.6,68,0.00,CLR,SKC,0.00,0.0,WeatherDisplay:10.37,2013-04-19 05:16:00,
2013-04-19 00:21:00,60.1,49.9,30.02,NNE,21,17.3,17.3,69,0.00,CLR,SKC,0.00,0.0,WeatherDisplay:10.37,2013-04-19 05:21:00,
2013-04-19 00:26:00,60.1,49.5,30.03,NNW,338,12.7,12.7,68,0.00,CLR,SKC,0.00,0.0,WeatherDisplay:10.37,2013-04-19 05:26:00,
2013-04-19 00:31:00,60.1,49.5,30.03,NE,40,19.6,19.6,68,0.00,CLR,SKC,0.00,0.0,WeatherDisplay:10.37,2013-04-19 05:31:00,
2013-04-19 00:36:00,60.0,49.4,30.03,NNE,32,20.7,20.7,68,0.00,CLR,SKC,0.00,0.0,WeatherDisplay:10.37,2013-04-19 05:36:00,
2013-04-19 00:41:00,60.0,49.0,30.04,NNE,17,13.8,13.8,67,0.00,CLR,SKC,0.00,0.0,WeatherDisplay:10.37,2013-04-19 05:41:00,
2013-04-19 00:46:00,59.9,48.5,30.04,NNE,16,18.4,18.4,66,0.00,CLR,SKC,0.00,0.0,WeatherDisplay:10.37,2013-04-19 05:46:00,
2013-04-19 00:51:00,59.9,49.3,30.04,NE,37,20.0,20.0,68,0.00,CLR,SKC,0.00,0.0,WeatherDisplay:10.37,2013-04-19 05:51:00,
2013-04-19 00:56:00,59.8,48.4,30.05,North,5,19.6,19.6,66,0.00,CLR,SKC,0.00,0.0,WeatherDisplay:10.37,2013-04-19 05:56:00,
2013-04-19 01:01:00,59.8,48.8,30.05,NNE,19,16.1,16.1,67,0.00,CLR,SKC,0.00,0.0,WeatherDisplay:10.37,2013-04-19 06:01:00,
2013-04-19 01:06:00,59.8,48.0,30.05,NE,42,19.6,19.6,65,0.00,CLR,SKC,0.00,0.0,WeatherDisplay:10.37,2013-04-19 06:06:00,
2013-04-19 01:11:00,59.8,48.4,30.05,NNW,328,20.7,20.7,66,0.00,CLR,SKC,0.00,0.0,WeatherDisplay:10.37,2013-04-19 06:11:00,
2013-04-19 01:16:00,59.8,48.4,30.05,NNW,331,18.4,18.4,66,0.00,CLR,SKC,0.00,0.0,WeatherDisplay:10.37,2013-04-19 06:16:00,
2013-04-19 01:21:00,59.6,48.2,30.05,North,9,17.3,17.3,66,0.00,CLR,SKC,0.00,0.0,WeatherDisplay:10.37,2013-04-19 06:21:00,
2013-04-19 01:26:00,59.7,48.7,30.06,NNW,341,16.1,16.1,67,0.00,CLR,SKC,0.00,0.0,WeatherDisplay:10.37,2013-04-19 06:26:00,
2013-04-19 01:31:00,59.7,47.5,30.06,NNE,18,19.6,19.6,64,0.00,CLR,SKC,0.00,0.0,WeatherDisplay:10.37,2013-04-19 06:31:00,
2013-04-19 01:36:00,59.6,48.2,30.06,NNE,16,15.0,15.0,66,0.00,CLR,SKC,0.00,0.0,WeatherDisplay:10.37,2013-04-19 06:36:00,
2013-04-19 01:41:00,59.6,47.8,30.07,North,355,17.3,17.3,65,0.00,CLR,SKC,0.00,0.0,WeatherDisplay:10.37,2013-04-19 06:41:00,
2013-04-19 01:46:00,59.6,48.2,30.07,NNE,24,17.3,17.3,66,0.00,CLR,SKC,0.00,0.0,WeatherDisplay:10.37,2013-04-19 06:46:00,
2013-04-19 01:51:00,59.6,48.2,30.07,North,360,13.8,13.8,66,0.00,CLR,SKC,0.00,0.0,WeatherDisplay:10.37,2013-04-19 06:51:00,
2013-04-19 01:56:00,59.5,47.7,30.07,NE,37,17.3,17.3,65,0.00,CLR,SKC,0.00,0.0,WeatherDisplay:10.37,2013-04-19 06:56:00,
2013-04-19 02:01:00,59.5,47.7,30.07,North,350,13.0,13.0,65,0.00,CLR,SKC,0.00,0.0,WeatherDisplay:10.37,2013-04-19 07:01:00,
2013-04-19 02:06:00,59.5,48.1,30.07,North,5,13.8,13.8,66,0.00,CLR,SKC,0.00,0.0,WeatherDisplay:10.37,2013-04-19 07:06:00,
2013-04-19 02:11:00,59.5,47.7,30.08,NNE,17,17.3,17.3,65,0.00,CLR,SKC,0.00,0.0,WeatherDisplay:10.37,2013-04-19 07:11:00,
2013-04-19 02:16:00,59.3,47.1,30.08,NNE,27,13.8,13.8,64,0.00,CLR,SKC,0.00,0.0,WeatherDisplay:10.37,2013-04-19 07:16:00,
2013-04-19 02:21:00,59.3,47.1,30.08,NNW,333,19.6,19.6,64,0.00,CLR,SKC,0.00,0.0,WeatherDisplay:10.37,2013-04-19 07:21:00,
2013-04-19 02:26:00,59.2,47.0,30.08,North,5,15.0,15.0,64,0.00,CLR,SKC,0.00,0.0,WeatherDisplay:10.37,2013-04-19 07:26:00,
2013-04-19 02:31:00,59.2,47.4,30.08,North,355,13.8,13.8,65,0.00,CLR,SKC,0.00,0.0,WeatherDisplay:10.37,2013-04-19 07:31:00,
2013-04-19 02:36:00,59.1,46.9,30.08,NNE,30,19.6,19.6,64,0.00,CLR,SKC,0.00,0.0,WeatherDisplay:10.37,2013-04-19 07:36:00,
2013-04-19 02:41:00,59.1,46.9,30.07,NNW,327,21.9,21.9,64,0.00,CLR,SKC,0.00,0.0,WeatherDisplay:10.37,2013-04-19 07:41:00,
2013-04-19 02:46:00,59.1,47.7,30.07,NE,38,13.0,13.0,66,0.00,CLR,SKC,0.00,0.0,WeatherDisplay:10.37,2013-04-19 07:46:00,
2013-04-19 02:51:00,59.0,46.8,30.07,North,11,18.4,18.4,64,0.00,CLR,SKC,0.00,0.0,WeatherDisplay:10.37,2013-04-19 07:51:00,
2013-04-19 02:56:00,59.0,46.0,30.07,North,9,25.3,25.3,62,0.00,CLR,SKC,0.00,0.0,WeatherDisplay:10.37,2013-04-19 07:56:00,
2013-04-19 03:01:00,58.9,45.9,30.07,NNE,24,19.6,19.6,62,0.00,CLR,SKC,0.00,0.0,WeatherDisplay:10.37,2013-04-19 08:01:00,
2013-04-19 03:06:00,58.8,45.8,30.07,NE,43,20.7,20.7,62,0.00,CLR,SKC,0.00,0.0,WeatherDisplay:10.37,2013-04-19 08:06:00,
2013-04-19 03:11:00,58.7,46.5,30.08,NNE,13,15.0,15.0,64,0.00,CLR,SKC,0.00,0.0,WeatherDisplay:10.37,2013-04-19 08:11:00,
2013-04-19 03:16:00,58.7,45.3,30.08,NNE,29,20.7,20.7,61,0.00,CLR,SKC,0.00,0.0,WeatherDisplay:10.37,2013-04-19 08:16:00,
2013-04-19 03:21:00,58.6,45.6,30.08,NNE,23,19.6,19.6,62,0.00,CLR,SKC,0.00,0.0,WeatherDisplay:10.37,2013-04-19 08:21:00,
2013-04-19 03:26:00,58.6,46.0,30.08,NNE,30,17.0,17.0,63,0.00,CLR,SKC,0.00,0.0,WeatherDisplay:10.37,2013-04-19 08:26:00,
2013-04-19 03:31:00,58.6,45.6,30.08,North,355,16.0,16.0,62,0.00,CLR,SKC,0.00,0.0,WeatherDisplay:10.37,2013-04-19 08:31:00,
2013-04-19 03:36:00,58.6,46.0,30.08,North,5,19.6,19.6,63,0.00,CLR,SKC,0.00,0.0,WeatherDisplay:10.37,2013-04-19 08:36:00,
2013-04-19 03:41:00,58.6,45.6,30.09,North,5,15.0,15.0,62,0.00,CLR,SKC,0.00,0.0,WeatherDisplay:10.37,2013-04-19 08:41:00,
2013-04-19 03:46:00,58.6,45.2,30.09,North,355,19.6,19.6,61,0.00,CLR,SKC,0.00,0.0,WeatherDisplay:10.37,2013-04-19 08:46:00,
2013-04-19 03:51:00,58.5,45.1,30.09,NNE,28,16.1,16.1,61,0.00,CLR,SKC,0.00,0.0,WeatherDisplay:10.37,2013-04-19 08:51:00,
2013-04-19 03:56:00,58.5,45.5,30.09,NNE,17,17.3,17.3,62,0.00,CLR,SKC,0.00,0.0,WeatherDisplay:10.37,2013-04-19 08:56:00,
2013-04-19 04:01:00,58.6,45.6,30.09,North,9,19.6,19.6,62,0.00,CLR,SKC,0.00,0.0,WeatherDisplay:10.37,2013-04-19 09:01:00,
2013-04-19 04:06:00,58.5,45.5,30.09,NNE,31,16.1,16.1,62,0.00,CLR,SKC,0.00,0.0,WeatherDisplay:10.37,2013-04-19 09:06:00,
2013-04-19 04:11:00,58.4,45.4,30.09,NNE,29,16.0,16.0,62,0.00,CLR,SKC,0.00,0.0,WeatherDisplay:10.37,2013-04-19 09:11:00,
2013-04-19 04:16:00,58.3,44.9,30.09,NE,36,16.1,16.1,61,0.00,CLR,SKC,0.00,0.0,WeatherDisplay:10.37,2013-04-19 09:16:00,
2013-04-19 04:21:00,58.3,44.9,30.09,NNW,340,20.0,20.0,61,0.00,CLR,SKC,0.00,0.0,WeatherDisplay:10.37,2013-04-19 09:21:00,
2013-04-19 04:26:00,58.2,43.0,30.09,NNW,344,19.6,19.6,57,0.00,CLR,SKC,0.00,0.0,WeatherDisplay:10.37,2013-04-19 09:26:00,
2013-04-19 04:31:00,58.2,43.5,30.09,NNE,24,21.9,21.9,58,0.00,CLR,SKC,0.00,0.0,WeatherDisplay:10.37,2013-04-19 09:31:00,
2013-04-19 04:36:00,58.1,44.3,30.09,NNE,29,19.6,19.6,60,0.00,CLR,SKC,0.00,0.0,WeatherDisplay:10.37,2013-04-19 09:36:00,
2013-04-19 04:41:00,58.0,43.3,30.09,NNW,345,19.6,19.6,58,0.00,CLR,SKC,0.00,0.0,WeatherDisplay:10.37,2013-04-19 09:41:00,
2013-04-19 04:46:00,57.9,42.8,30.09,NW,326,20.7,20.7,57,0.00,CLR,SKC,0.00,0.0,WeatherDisplay:10.37,2013-04-19 09:46:00,
2013-04-19 04:51:00,57.9,43.2,30.09,NNW,327,18.4,18.4,58,0.00,CLR,SKC,0.00,0.0,WeatherDisplay:10.37,2013-04-19 09:51:00,
2013-04-19 04:56:00,58.0,43.3,30.10,NNE,24,14.0,14.0,58,0.00,CLR,SKC,0.00,0.0,WeatherDisplay:10.37,2013-04-19 09:56:00,
2013-04-19 05:01:00,57.7,42.1,30.10,North,5,17.3,17.3,56,0.00,CLR,SKC,0.00,0.0,WeatherDisplay:10.37,2013-04-19 10:01:00,
2013-04-19 05:06:00,57.8,43.6,30.10,North,9,19.6,19.6,59,0.00,CLR,SKC,0.00,0.0,WeatherDisplay:10.37,2013-04-19 10:06:00,
2013-04-19 05:11:00,57.7,43.9,30.10,NNE,17,11.5,11.5,60,0.00,CLR,SKC,0.00,0.0,WeatherDisplay:10.37,2013-04-19 10:11:00,
2013-04-19 05:16:00,57.6,44.2,30.10,NNW,341,15.0,15.0,61,0.00,CLR,SKC,0.00,0.0,WeatherDisplay:10.37,2013-04-19 10:16:00,
2013-04-19 05:21:00,57.5,44.1,30.10,NNE,23,19.6,19.6,61,0.00,CLR,SKC,0.00,0.0,WeatherDisplay:10.37,2013-04-19 10:21:00,
2013-04-19 05:26:00,57.2,44.3,30.11,NNE,16,13.8,13.8,62,0.00,CLR,SKC,0.00,0.0,WeatherDisplay:10.37,2013-04-19 10:26:00,
2013-04-19 05:31:00,57.2,43.9,30.11,NNE,28,11.5,11.5,61,0.00,CLR,SKC,0.00,0.0,WeatherDisplay:10.37,2013-04-19 10:31:00,
2013-04-19 05:36:00,57.2,43.9,30.11,NNE,18,11.5,11.5,61,0.00,CLR,SKC,0.00,0.0,WeatherDisplay:10.37,2013-04-19 10:36:00,
2013-04-19 05:41:00,57.1,43.8,30.11,NNW,338,17.3,17.3,61,0.00,CLR,SKC,0.00,0.0,WeatherDisplay:10.37,2013-04-19 10:41:00,
2013-04-19 05:46:00,57.1,43.8,30.11,North,5,11.5,11.5,61,0.00,CLR,SKC,0.00,0.0,WeatherDisplay:10.37,2013-04-19 10:46:00,
2013-04-19 05:51:00,57.1,43.3,30.11,NNE,30,18.4,18.4,60,0.00,CLR,SKC,0.00,0.0,WeatherDisplay:10.37,2013-04-19 10:51:00,
2013-04-19 05:56:00,56.9,42.7,30.12,NNW,340,17.3,17.3,59,0.00,CLR,SKC,0.00,0.0,WeatherDisplay:10.37,2013-04-19 10:56:00,
2013-04-19 06:01:00,56.8,42.2,30.12,ENE,67,19.6,19.6,58,0.00,CLR,SKC,0.00,0.0,WeatherDisplay:10.37,2013-04-19 11:01:00,
2013-04-19 06:06:00,56.6,41.5,30.12,North,5,17.0,17.0,57,0.00,CLR,SKC,0.00,0.0,WeatherDisplay:10.37,2013-04-19 11:06:00,
2013-04-19 06:11:00,56.7,42.5,30.13,NNW,342,18.4,18.4,59,0.00,CLR,SKC,0.00,0.0,WeatherDisplay:10.37,2013-04-19 11:11:00,
2013-04-19 06:16:00,56.6,42.9,30.13,NNE,23,16.1,16.1,60,0.00,CLR,SKC,0.00,0.0,WeatherDisplay:10.37,2013-04-19 11:16:00,
2013-04-19 06:21:00,56.5,42.8,30.13,NNE,26,13.8,13.8,60,0.00,CLR,SKC,0.00,0.0,WeatherDisplay:10.37,2013-04-19 11:21:00,
2013-04-19 06:26:00,56.4,41.3,30.13,NNE,27,21.9,21.9,57,0.00,CLR,SKC,0.00,0.0,WeatherDisplay:10.37,2013-04-19 11:26:00,
2013-04-19 06:31:00,56.4,40.4,30.13,NNE,30,16.1,16.1,55,0.00,CLR,SKC,0.00,0.0,WeatherDisplay:10.37,2013-04-19 11:31:00,
2013-04-19 06:36:00,56.4,41.8,30.13,NE,36,17.0,17.0,58,0.00,CLR,SKC,0.00,0.0,WeatherDisplay:10.37,2013-04-19 11:36:00,
2013-04-19 06:41:00,56.4,40.9,30.14,NNE,22,18.4,18.4,56,0.00,CLR,SKC,0.00,0.0,WeatherDisplay:10.37,2013-04-19 11:41:00,
2013-04-19 06:46:00,56.4,40.4,30.14,North,5,16.1,16.1,55,0.00,CLR,SKC,0.00,0.0,WeatherDisplay:10.37,2013-04-19 11:46:00,
2013-04-19 06:51:00,56.4,41.8,30.14,North,349,17.3,17.3,58,0.00,CLR,SKC,0.00,0.0,WeatherDisplay:10.37,2013-04-19 11:51:00,
2013-04-19 06:56:00,56.3,42.1,30.15,North,355,12.7,12.7,59,0.00,CLR,SKC,0.00,0.0,WeatherDisplay:10.37,2013-04-19 11:56:00,
2013-04-19 07:01:00,56.2,41.6,30.15,NE,38,13.8,13.8,58,0.00,CLR,SKC,0.00,0.0,WeatherDisplay:10.37,2013-04-19 12:01:00,
2013-04-19 07:06:00,56.1,40.6,30.15,NNW,347,16.1,16.1,56,0.00,CLR,SKC,0.00,0.0,WeatherDisplay:10.37,2013-04-19 12:06:00,
2013-04-19 07:11:00,56.2,41.6,30.16,North,355,12.7,12.7,58,0.00,CLR,SKC,0.00,0.0,WeatherDisplay:10.37,2013-04-19 12:11:00,
2013-04-19 07:16:00,56.0,41.0,30.16,NE,41,17.3,17.3,57,0.00,CLR,SKC,0.00,7.0,WeatherDisplay:10.37,2013-04-19 12:16:00,
2013-04-19 07:21:00,55.8,40.8,30.16,NNW,338,13.8,13.8,57,0.00,CLR,SKC,0.00,9.0,WeatherDisplay:10.37,2013-04-19 12:21:00,
2013-04-19 07:26:00,55.7,40.7,30.16,NNE,24,17.3,17.3,57,0.00,CLR,SKC,0.00,12.0,WeatherDisplay:10.37,2013-04-19 12:26:00,
2013-04-19 07:31:00,55.6,40.6,30.16,North,5,19.6,19.6,57,0.00,CLR,SKC,0.00,16.0,WeatherDisplay:10.37,2013-04-19 12:31:00,
2013-04-19 07:36:00,55.6,40.1,30.16,NNE,19,16.1,16.1,56,0.00,CLR,SKC,0.00,18.0,WeatherDisplay:10.37,2013-04-19 12:36:00,
2013-04-19 07:41:00,55.5,39.6,30.16,ENE,58,16.1,16.1,55,0.00,CLR,SKC,0.00,21.0,WeatherDisplay:10.37,2013-04-19 12:41:00,
2013-04-19 07:46:00,55.6,40.6,30.16,North,9,16.0,16.0,57,0.00,CLR,SKC,0.00,35.0,WeatherDisplay:10.37,2013-04-19 12:46:00,
2013-04-19 07:51:00,55.5,39.6,30.16,NNE,15,20.0,20.0,55,0.00,CLR,SKC,0.00,28.0,WeatherDisplay:10.37,2013-04-19 12:51:00,
2013-04-19 07:56:00,55.4,39.5,30.18,North,355,15.0,15.0,55,0.00,CLR,SKC,0.00,25.0,WeatherDisplay:10.37,2013-04-19 12:56:00,
2013-04-19 08:01:00,55.2,40.2,30.18,NNE,12,16.1,16.1,57,0.00,CLR,SKC,0.00,30.0,WeatherDisplay:10.37,2013-04-19 13:01:00,
2013-04-19 08:06:00,55.2,40.7,30.18,NNE,19,16.1,16.1,58,0.00,CLR,SKC,0.00,32.0,WeatherDisplay:10.37,2013-04-19 13:06:00,
2013-04-19 08:11:00,55.3,40.8,30.19,NNE,14,11.5,11.5,58,0.00,CLR,SKC,0.00,46.0,WeatherDisplay:10.37,2013-04-19 13:11:00,
2013-04-19 08:16:00,55.2,42.0,30.19,NNW,339,12.7,12.7,61,0.00,CLR,SKC,0.00,35.0,WeatherDisplay:10.37,2013-04-19 13:16:00,
2013-04-19 08:21:00,55.0,42.2,30.19,North,350,10.4,10.4,62,0.00,CLR,SKC,0.00,46.0,WeatherDisplay:10.37,2013-04-19 13:21:00,
2013-04-19 08:26:00,54.9,39.9,30.21,NNW,342,17.3,17.3,57,0.00,CLR,SKC,0.00,40.0,WeatherDisplay:10.37,2013-04-19 13:26:00,
2013-04-19 08:31:00,54.9,39.5,30.21,North,355,17.3,17.3,56,0.00,CLR,SKC,0.00,32.0,WeatherDisplay:10.37,2013-04-19 13:31:00,
2013-04-19 08:36:00,54.9,40.4,30.21,North,355,12.7,12.7,58,0.00,CLR,SKC,0.00,65.0,WeatherDisplay:10.37,2013-04-19 13:36:00,
2013-04-19 08:41:00,54.9,39.0,30.22,NW,326,17.3,17.3,55,0.00,CLR,SKC,0.00,46.0,WeatherDisplay:10.37,2013-04-19 13:41:00,
2013-04-19 08:46:00,54.8,39.4,30.22,NNW,334,19.6,19.6,56,0.00,CLR,SKC,0.00,46.0,WeatherDisplay:10.37,2013-04-19 13:46:00,
2013-04-19 08:51:00,54.5,39.6,30.22,NNE,23,17.3,17.3,57,0.00,CLR,SKC,0.00,54.0,WeatherDisplay:10.37,2013-04-19 13:51:00,
2013-04-19 08:56:00,54.5,40.0,30.23,NNE,18,16.1,16.1,58,0.00,CLR,SKC,0.00,60.0,WeatherDisplay:10.37,2013-04-19 13:56:00,
2013-04-19 09:01:00,54.5,39.6,30.23,NNE,18,14.0,14.0,57,0.00,-RA,SKC,0.00,46.0,WeatherDisplay:10.37,2013-04-19 14:01:00,
2013-04-19 09:06:00,54.5,40.0,30.23,NNW,334,16.1,16.1,58,0.00,-RA,SKC,0.00,74.0,WeatherDisplay:10.37,2013-04-19 14:06:00,
2013-04-19 09:11:00,54.6,40.6,30.23,North,351,10.4,10.4,59,0.00,-RA,SKC,0.00,88.0,WeatherDisplay:10.37,2013-04-19 14:11:00,
2013-04-19 09:16:00,54.7,40.6,30.23,NNW,338,11.5,11.5,59,0.00,-RA,SKC,0.00,74.0,WeatherDisplay:10.37,2013-04-19 14:16:00,
2013-04-19 09:21:00,54.3,39.8,30.23,NNW,341,12.7,12.7,58,0.01,-RA,SKC,0.01,86.0,WeatherDisplay:10.37,2013-04-19 14:21:00,
2013-04-19 09:26:00,54.2,40.6,30.23,NNW,336,11.5,11.5,60,0.01,-RA,SKC,0.01,74.0,WeatherDisplay:10.37,2013-04-19 14:26:00,
2013-04-19 09:31:00,54.2,40.2,30.23,NNW,343,11.5,11.5,59,0.01,-RA,SKC,0.01,76.0,WeatherDisplay:10.37,2013-04-19 14:31:00,
2013-04-19 09:36:00,54.4,39.5,30.23,NNW,342,18.4,18.4,57,0.01,-RA,SKC,0.01,67.0,WeatherDisplay:10.37,2013-04-19 14:36:00,
2013-04-19 09:41:00,54.3,40.7,30.22,NNW,340,12.0,12.0,60,0.01,-RA,SKC,0.01,95.0,WeatherDisplay:10.37,2013-04-19 14:41:00,
2013-04-19 09:46:00,54.5,39.6,30.22,North,355,12.7,12.7,57,0.01,-RA,SKC,0.01,123.0,WeatherDisplay:10.37,2013-04-19 14:46:00,
2013-04-19 09:51:00,54.7,39.8,30.22,NNE,26,11.5,11.5,57,0.01,-RA,SKC,0.01,102.0,WeatherDisplay:10.37,2013-04-19 14:51:00,
2013-04-19 09:56:00,54.9,39.0,30.24,WNW,300,11.5,11.5,55,0.01,-RA,SKC,0.01,81.0,WeatherDisplay:10.37,2013-04-19 14:56:00,
2013-04-19 10:01:00,54.9,38.6,30.24,North,355,13.8,13.8,54,0.01,SCT,SKC,0.01,93.0,WeatherDisplay:10.37,2013-04-19 15:01:00,
2013-04-19 10:06:00,54.9,39.0,30.24,North,5,10.4,10.4,55,0.01,SCT,SKC,0.01,90.0,WeatherDisplay:10.37,2013-04-19 15:06:00,
2013-04-19 10:11:00,55.0,38.6,30.26,North,11,11.5,11.5,54,0.01,SCT,SKC,0.01,95.0,WeatherDisplay:10.37,2013-04-19 15:11:00,
2013-04-19 10:16:00,55.2,39.8,30.26,North,5,9.2,9.2,56,0.01,SCT,SKC,0.01,98.0,WeatherDisplay:10.37,2013-04-19 15:16:00,
2013-04-19 10:21:00,55.2,38.8,30.26,NNW,340,11.5,11.5,54,0.00,SCT,SKC,0.01,127.0,WeatherDisplay:10.37,2013-04-19 15:21:00,
2013-04-19 10:26:00,55.3,38.9,30.27,North,9,10.4,10.4,54,0.00,SCT,SKC,0.01,130.0,WeatherDisplay:10.37,2013-04-19 15:26:00,
2013-04-19 10:31:00,55.3,38.4,30.27,North,350,11.5,11.5,53,0.00,SCT,SKC,0.01,176.0,WeatherDisplay:10.37,2013-04-19 15:31:00,
2013-04-19 10:36:00,55.5,39.6,30.27,NNW,331,10.4,10.4,55,0.00,SCT,SKC,0.01,174.0,WeatherDisplay:10.37,2013-04-19 15:36:00,
2013-04-19 10:41:00,55.5,38.1,30.27,NNE,23,11.5,11.5,52,0.00,SCT,SKC,0.01,139.0,WeatherDisplay:10.37,2013-04-19 15:41:00,
2013-04-19 10:46:00,55.4,38.1,30.27,North,355,11.5,11.5,52,0.00,SCT,SKC,0.01,218.0,WeatherDisplay:10.37,2013-04-19 15:46:00,
2013-04-19 10:51:00,55.5,38.6,30.27,NNW,344,10.4,10.4,53,0.00,SCT,SKC,0.01,206.0,WeatherDisplay:10.37,2013-04-19 15:51:00,
2013-04-19 10:56:00,55.6,38.7,30.28,North,5,10.4,10.4,53,0.00,SCT,SKC,0.01,223.0,WeatherDisplay:10.37,2013-04-19 15:56:00,
2013-04-19 11:01:00,55.8,38.4,30.28,North,349,10.4,10.4,52,0.00,OVC,SKC,0.01,225.0,WeatherDisplay:10.37,2013-04-19 16:01:00,
2013-04-19 11:06:00,55.8,37.4,30.28,NNW,340,11.5,11.5,50,0.00,OVC,SKC,0.01,255.0,WeatherDisplay:10.37,2013-04-19 16:06:00,
2013-04-19 11:11:00,56.2,39.3,30.28,NE,35,10.4,10.4,53,0.00,OVC,SKC,0.01,255.0,WeatherDisplay:10.37,2013-04-19 16:11:00,
2013-04-19 11:16:00,56.4,39.5,30.28,NNW,336,10.4,10.4,53,0.00,OVC,SKC,0.01,265.0,WeatherDisplay:10.37,2013-04-19 16:16:00,
2013-04-19 11:21:00,56.5,37.0,30.28,NNE,13,10.4,10.4,48,0.00,OVC,SKC,0.01,285.0,WeatherDisplay:10.37,2013-04-19 16:21:00,
2013-04-19 11:26:00,56.6,38.2,30.28,North,355,6.9,6.9,50,0.00,OVC,SKC,0.01,272.0,WeatherDisplay:10.37,2013-04-19 16:26:00,
2013-04-19 11:31:00,57.0,39.0,30.28,NNE,28,4.6,4.6,51,0.00,OVC,SKC,0.01,283.0,WeatherDisplay:10.37,2013-04-19 16:31:00,
2013-04-19 11:36:00,57.1,39.6,30.28,NNE,22,6.0,6.0,52,0.00,OVC,SKC,0.01,223.0,WeatherDisplay:10.37,2013-04-19 16:36:00,
2013-04-19 11:41:00,56.9,38.4,30.28,NNE,29,9.2,9.2,50,0.00,OVC,SKC,0.01,265.0,WeatherDisplay:10.37,2013-04-19 16:41:00,
2013-04-19 11:46:00,57.1,38.1,30.28,North,5,11.5,11.5,49,0.00,OVC,SKC,0.01,251.0,WeatherDisplay:10.37,2013-04-19 16:46:00,
2013-04-19 11:51:00,57.2,37.1,30.28,NE,38,10.4,10.4,47,0.00,OVC,SKC,0.01,264.0,WeatherDisplay:10.37,2013-04-19 16:51:00,
2013-04-19 11:56:00,57.3,37.8,30.28,North,5,9.2,9.2,48,0.00,OVC,SKC,0.01,251.0,WeatherDisplay:10.37,2013-04-19 16:56:00,
2013-04-19 12:01:00,57.3,36.7,30.28,North,5,10.4,10.4,46,0.00,OVC,SKC,0.01,373.0,WeatherDisplay:10.37,2013-04-19 17:01:00,
2013-04-19 12:06:00,57.5,36.9,30.28,NNE,29,12.0,12.0,46,0.00,OVC,SKC,0.01,243.0,WeatherDisplay:10.37,2013-04-19 17:06:00,
2013-04-19 12:11:00,57.4,34.5,30.28,NNE,22,15.0,15.0,42,0.00,OVC,SKC,0.01,220.0,WeatherDisplay:10.37,2013-04-19 17:11:00,
2013-04-19 12:16:00,57.4,36.8,30.28,NE,44,10.4,10.4,46,0.00,OVC,SKC,0.01,278.0,WeatherDisplay:10.37,2013-04-19 17:16:00,
2013-04-19 12:21:00,57.2,34.3,30.28,North,5,13.8,13.8,42,0.00,OVC,SKC,0.01,297.0,WeatherDisplay:10.37,2013-04-19 17:21:00,
2013-04-19 12:26:00,57.5,36.3,30.28,NE,39,10.0,10.0,45,0.00,OVC,SKC,0.01,360.0,WeatherDisplay:10.37,2013-04-19 17:26:00,
2013-04-19 12:31:00,57.5,36.3,30.28,North,11,10.4,10.4,45,0.00,OVC,SKC,0.01,327.0,WeatherDisplay:10.37,2013-04-19 17:31:00,
2013-04-19 12:36:00,57.5,36.3,30.28,NE,44,11.5,11.5,45,0.00,OVC,SKC,0.01,369.0,WeatherDisplay:10.37,2013-04-19 17:36:00,
2013-04-19 12:41:00,57.3,35.0,30.28,NE,47,12.7,12.7,43,0.00,OVC,SKC,0.01,378.0,WeatherDisplay:10.37,2013-04-19 17:41:00,
2013-04-19 12:46:00,57.3,35.6,30.28,NNE,24,11.5,11.5,44,0.00,OVC,SKC,0.01,380.0,WeatherDisplay:10.37,2013-04-19 17:46:00,
2013-04-19 12:51:00,57.2,36.0,30.28,ENE,63,8.0,8.0,45,0.00,OVC,SKC,0.01,336.0,WeatherDisplay:10.37,2013-04-19 17:51:00,
2013-04-19 12:56:00,57.4,33.9,30.27,NE,38,15.0,15.0,41,0.00,OVC,SKC,0.01,353.0,WeatherDisplay:10.37,2013-04-19 17:56:00,
2013-04-19 13:01:00,57.3,34.4,30.27,NE,40,13.8,13.8,42,0.00,OVC,SKC,0.01,394.0,WeatherDisplay:10.37,2013-04-19 18:01:00,
2013-04-19 13:06:00,57.4,35.6,30.27,NNE,28,12.7,12.7,44,0.00,OVC,SKC,0.01,369.0,WeatherDisplay:10.37,2013-04-19 18:06:00,
2013-04-19 13:11:00,57.2,35.5,30.27,NE,44,8.1,8.1,44,0.00,OVC,SKC,0.01,315.0,WeatherDisplay:10.37,2013-04-19 18:11:00,
2013-04-19 13:16:00,57.3,35.0,30.27,NNE,26,10.4,10.4,43,0.00,OVC,SKC,0.01,415.0,WeatherDisplay:10.37,2013-04-19 18:16:00,
2013-04-19 13:21:00,57.1,35.4,30.27,NNE,20,11.5,11.5,44,0.00,OVC,SKC,0.01,388.0,WeatherDisplay:10.37,2013-04-19 18:21:00,
2013-04-19 13:26:00,57.1,35.4,30.27,NNE,13,10.4,10.4,44,0.00,OVC,SKC,0.01,260.0,WeatherDisplay:10.37,2013-04-19 18:26:00,
2013-04-19 13:31:00,57.1,35.9,30.27,NE,34,9.2,9.2,45,0.00,OVC,SKC,0.01,269.0,WeatherDisplay:10.37,2013-04-19 18:31:00,
2013-04-19 13:36:00,57.1,35.9,30.27,NE,49,10.0,10.0,45,0.00,OVC,SKC,0.01,355.0,WeatherDisplay:10.37,2013-04-19 18:36:00,
2013-04-19 13:41:00,57.4,36.2,30.25,ENE,61,10.4,10.4,45,0.00,OVC,SKC,0.01,399.0,WeatherDisplay:10.37,2013-04-19 18:41:00,
2013-04-19 13:46:00,57.4,37.3,30.25,NNE,13,11.5,11.5,47,0.00,OVC,SKC,0.01,1000.0,WeatherDisplay:10.37,2013-04-19 18:46:00,
2013-04-19 13:51:00,57.5,36.3,30.25,NE,44,10.0,10.0,45,0.00,OVC,SKC,0.01,995.0,WeatherDisplay:10.37,2013-04-19 18:51:00,
2013-04-19 13:56:00,57.5,37.4,30.25,ENE,63,8.0,8.0,47,0.00,OVC,SKC,0.01,954.0,WeatherDisplay:10.37,2013-04-19 18:56:00,
2013-04-19 14:01:00,57.4,36.2,30.25,NNE,22,9.0,9.0,45,0.00,CLR,SKC,0.01,942.0,WeatherDisplay:10.37,2013-04-19 19:01:00,
2013-04-19 14:06:00,57.6,35.8,30.25,ENE,74,9.2,9.2,44,0.00,CLR,SKC,0.01,937.0,WeatherDisplay:10.37,2013-04-19 19:06:00,
2013-04-19 14:11:00,58.0,36.2,30.24,NE,42,11.5,11.5,44,0.00,CLR,SKC,0.01,935.0,WeatherDisplay:10.37,2013-04-19 19:11:00,
2013-04-19 14:16:00,58.1,35.7,30.24,NW,321,6.9,6.9,43,0.00,CLR,SKC,0.01,926.0,WeatherDisplay:10.37,2013-04-19 19:16:00,
2013-04-19 14:21:00,58.0,35.0,30.24,NE,34,4.6,4.6,42,0.00,CLR,SKC,0.01,918.0,WeatherDisplay:10.37,2013-04-19 19:21:00,
2013-04-19 14:26:00,58.3,36.5,30.24,NE,46,8.1,8.1,44,0.00,CLR,SKC,0.01,912.0,WeatherDisplay:10.37,2013-04-19 19:26:00,
2013-04-19 14:31:00,58.5,36.6,30.24,East,92,5.8,5.8,44,0.00,CLR,SKC,0.01,907.0,WeatherDisplay:10.37,2013-04-19 19:31:00,
2013-04-19 14:36:00,58.9,38.1,30.24,NW,317,6.9,6.9,46,0.00,CLR,SKC,0.01,902.0,WeatherDisplay:10.37,2013-04-19 19:36:00,
2013-04-19 14:41:00,59.2,36.7,30.23,NE,37,4.6,4.6,43,0.00,CLR,SKC,0.01,893.0,WeatherDisplay:10.37,2013-04-19 19:41:00,
2013-04-19 14:46:00,59.3,36.2,30.23,ENE,63,5.8,5.8,42,0.00,CLR,SKC,0.01,886.0,WeatherDisplay:10.37,2013-04-19 19:46:00,
2013-04-19 14:51:00,59.5,37.0,30.23,ENE,76,5.0,5.1,43,0.00,CLR,SKC,0.01,877.0,WeatherDisplay:10.37,2013-04-19 19:51:00,
2013-04-19 14:56:00,59.8,36.6,30.22,ENE,69,4.6,4.6,42,0.00,CLR,SKC,0.01,865.0,WeatherDisplay:10.37,2013-04-19 19:56:00,
2013-04-19 15:01:00,59.8,36.0,30.22,East,84,3.5,3.5,41,0.00,CLR,SKC,0.01,860.0,WeatherDisplay:10.37,2013-04-19 20:01:00,
2013-04-19 15:06:00,60.0,39.7,30.22,ENE,73,9.2,9.2,47,0.00,CLR,SKC,0.01,846.0,WeatherDisplay:10.37,2013-04-19 20:06:00,
2013-04-19 15:11:00,60.0,40.2,30.21,East,88,3.5,3.5,48,0.00,CLR,SKC,0.01,838.0,WeatherDisplay:10.37,2013-04-19 20:11:00,
2013-04-19 15:16:00,60.6,39.7,30.21,East,93,9.0,9.0,46,0.00,CLR,SKC,0.01,826.0,WeatherDisplay:10.37,2013-04-19 20:16:00,
2013-04-19 15:21:00,60.8,39.9,30.21,ENE,74,8.1,8.1,46,0.00,CLR,SKC,0.01,816.0,WeatherDisplay:10.37,2013-04-19 20:21:00,
2013-04-19 15:26:00,61.1,40.7,30.19,East,82,7.0,7.0,47,0.00,CLR,SKC,0.01,796.0,WeatherDisplay:10.37,2013-04-19 20:26:00,
2013-04-19 15:31:00,61.3,38.6,30.19,East,90,5.8,5.8,43,0.00,CLR,SKC,0.01,788.0,WeatherDisplay:10.37,2013-04-19 20:31:00,
2013-04-19 15:36:00,61.5,40.5,30.19,East,96,5.8,6.0,46,0.00,CLR,SKC,0.01,782.0,WeatherDisplay:10.37,2013-04-19 20:36:00,
2013-04-19 15:41:00,61.1,40.1,30.19,SE,134,5.8,5.8,46,0.00,CLR,SKC,0.01,765.0,WeatherDisplay:10.37,2013-04-19 20:41:00,
2013-04-19 15:46:00,61.3,39.8,30.19,SE,126,10.4,10.4,45,0.00,CLR,SKC,0.01,759.0,WeatherDisplay:10.37,2013-04-19 20:46:00,
2013-04-19 15:51:00,61.4,41.0,30.19,ESE,105,10.4,10.4,47,0.00,CLR,SKC,0.01,744.0,WeatherDisplay:10.37,2013-04-19 20:51:00,
2013-04-19 15:56:00,61.6,41.2,30.18,SE,144,5.8,5.8,47,0.00,CLR,SKC,0.01,733.0,WeatherDisplay:10.37,2013-04-19 20:56:00,
2013-04-19 16:01:00,62.2,41.2,30.18,ESE,108,5.0,5.0,46,0.00,CLR,SKC,0.01,721.0,WeatherDisplay:10.37,2013-04-19 21:01:00,
2013-04-19 16:06:00,62.5,40.9,30.18,SE,126,5.0,5.0,45,0.00,CLR,SKC,0.01,710.0,WeatherDisplay:10.37,2013-04-19 21:06:00,
2013-04-19 16:11:00,62.5,40.3,30.17,East,88,6.9,6.9,44,0.00,CLR,SKC,0.01,701.0,WeatherDisplay:10.37,2013-04-19 21:11:00,
2013-04-19 16:16:00,62.6,40.9,30.17,SE,136,4.0,4.0,45,0.00,CLR,SKC,0.01,686.0,WeatherDisplay:10.37,2013-04-19 21:16:00,
2013-04-19 16:21:00,63.1,40.8,30.17,ESE,103,4.6,4.6,44,0.00,CLR,SKC,0.01,677.0,WeatherDisplay:10.37,2013-04-19 21:21:00,
2013-04-19 16:26:00,62.8,41.7,30.16,ESE,114,8.1,8.1,46,0.00,CLR,SKC,0.01,659.0,WeatherDisplay:10.37,2013-04-19 21:26:00,
2013-04-19 16:31:00,62.2,41.2,30.16,SE,128,9.2,9.2,46,0.00,CLR,SKC,0.01,649.0,WeatherDisplay:10.37,2013-04-19 21:31:00,
2013-04-19 16:36:00,62.2,42.3,30.16,SE,135,4.6,4.6,48,0.00,CLR,SKC,0.01,631.0,WeatherDisplay:10.37,2013-04-19 21:36:00,
2013-04-19 16:41:00,62.6,42.6,30.16,ESE,117,7.0,7.0,48,0.00,CLR,SKC,0.01,622.0,WeatherDisplay:10.37,2013-04-19 21:41:00,
2013-04-19 16:46:00,62.7,42.2,30.16,East,89,5.0,5.0,47,0.00,CLR,SKC,0.01,603.0,WeatherDisplay:10.37,2013-04-19 21:46:00,
2013-04-19 16:51:00,62.8,42.3,30.16,SE,137,8.1,8.1,47,0.00,CLR,SKC,0.01,584.0,WeatherDisplay:10.37,2013-04-19 21:51:00,
2013-04-19 16:56:00,62.4,43.0,30.15,East,83,8.0,8.0,49,0.00,CLR,SKC,0.01,571.0,WeatherDisplay:10.37,2013-04-19 21:56:00,
2013-04-19 17:01:00,62.4,43.5,30.15,East,86,7.0,7.0,50,0.00,CLR,SKC,0.01,550.0,WeatherDisplay:10.37,2013-04-19 22:01:00,
2013-04-19 17:06:00,62.4,42.4,30.15,ESE,122,5.8,5.8,48,0.00,CLR,SKC,0.01,540.0,WeatherDisplay:10.37,2013-04-19 22:06:00,
2013-04-19 17:11:00,62.7,42.7,30.15,ESE,103,10.4,10.4,48,0.00,CLR,SKC,0.01,529.0,WeatherDisplay:10.37,2013-04-19 22:11:00,
2013-04-19 17:16:00,62.5,43.1,30.15,ESE,113,9.2,9.2,49,0.00,CLR,SKC,0.01,503.0,WeatherDisplay:10.37,2013-04-19 22:16:00,
2013-04-19 17:21:00,62.2,43.3,30.15,SE,138,6.9,6.9,50,0.00,CLR,SKC,0.01,487.0,WeatherDisplay:10.37,2013-04-19 22:21:00,
2013-04-19 17:26:00,62.2,42.8,30.14,ESE,123,6.9,6.9,49,0.00,CLR,SKC,0.01,471.0,WeatherDisplay:10.37,2013-04-19 22:26:00,
2013-04-19 17:31:00,62.4,43.0,30.14,SE,142,6.9,6.9,49,0.00,CLR,SKC,0.01,454.0,WeatherDisplay:10.37,2013-04-19 22:31:00,
2013-04-19 17:36:00,62.4,42.4,30.14,SE,126,5.8,5.8,48,0.00,CLR,SKC,0.01,439.0,WeatherDisplay:10.37,2013-04-19 22:36:00,
2013-04-19 17:41:00,62.3,43.9,30.14,East,93,6.9,6.9,51,0.00,CLR,SKC,0.01,422.0,WeatherDisplay:10.37,2013-04-19 22:41:00,
2013-04-19 17:46:00,62.4,44.5,30.14,ESE,120,8.0,8.0,52,0.00,CLR,SKC,0.01,403.0,WeatherDisplay:10.37,2013-04-19 22:46:00,
2013-04-19 17:51:00,62.1,43.7,30.14,ESE,117,7.0,7.3,51,0.00,CLR,SKC,0.01,381.0,WeatherDisplay:10.37,2013-04-19 22:51:00,
2013-04-19 17:56:00,62.1,44.3,30.14,SE,127,6.9,6.9,52,0.00,CLR,SKC,0.01,366.0,WeatherDisplay:10.37,2013-04-19 22:56:00,
2013-04-19 18:01:00,62.4,43.5,30.14,ESE,115,11.5,11.5,50,0.00,CLR,SKC,0.01,348.0,WeatherDisplay:10.37,2013-04-19 23:01:00,
2013-04-19 18:06:00,62.3,43.9,30.14,ESE,115,8.1,8.1,51,0.00,CLR,SKC,0.01,330.0,WeatherDisplay:10.37,2013-04-19 23:06:00,
2013-04-19 18:11:00,62.2,43.8,30.14,ESE,118,9.2,9.2,51,0.00,CLR,SKC,0.01,313.0,WeatherDisplay:10.37,2013-04-19 23:11:00,
2013-04-19 18:16:00,62.5,42.5,30.14,SE,125,7.0,7.0,48,0.00,CLR,SKC,0.01,295.0,WeatherDisplay:10.37,2013-04-19 23:16:00,
2013-04-19 18:21:00,62.6,45.2,30.14,East,94,10.4,10.4,53,0.00,CLR,SKC,0.01,278.0,WeatherDisplay:10.37,2013-04-19 23:21:00,
2013-04-19 18:26:00,62.6,44.7,30.13,ESE,123,5.8,5.8,52,0.00,CLR,SKC,0.01,260.0,WeatherDisplay:10.37,2013-04-19 23:26:00,
2013-04-19 18:31:00,62.7,42.7,30.13,SE,142,6.9,6.9,48,0.00,CLR,SKC,0.01,243.0,WeatherDisplay:10.37,2013-04-19 23:31:00,
2013-04-19 18:36:00,62.7,45.3,30.13,ESE,115,10.4,10.4,53,0.00,CLR,SKC,0.01,225.0,WeatherDisplay:10.37,2013-04-19 23:36:00,
2013-04-19 18:41:00,62.6,44.7,30.13,ENE,76,10.4,10.4,52,0.00,CLR,SKC,0.01,209.0,WeatherDisplay:10.37,2013-04-19 23:41:00,
2013-04-19 18:46:00,62.6,45.7,30.13,East,101,11.5,11.5,54,0.00,CLR,SKC,0.01,192.0,WeatherDisplay:10.37,2013-04-19 23:46:00,
2013-04-19 18:51:00,62.7,45.3,30.13,SE,125,7.0,7.0,53,0.00,CLR,SKC,0.01,174.0,WeatherDisplay:10.37,2013-04-19 23:51:00,
2013-04-19 18:56:00,62.8,45.4,30.13,East,96,6.9,6.9,53,0.00,CLR,SKC,0.01,158.0,WeatherDisplay:10.37,2013-04-19 23:56:00,
2013-04-19 19:01:00,62.9,45.5,30.13,SE,133,5.8,5.8,53,0.00,CLR,SKC,0.01,141.0,WeatherDisplay:10.37,2013-04-20 00:01:00,
2013-04-19 19:06:00,63.1,46.7,30.13,SSE,155,3.5,3.5,55,0.00,CLR,SKC,0.01,120.0,WeatherDisplay:10.37,2013-04-20 00:06:00,
2013-04-19 19:11:00,63.2,46.3,30.14,SSE,157,4.6,4.6,54,0.00,CLR,SKC,0.01,98.0,WeatherDisplay:10.37,2013-04-20 00:11:00,
2013-04-19 19:16:00,63.4,46.5,30.14,SE,137,4.6,4.6,54,0.00,CLR,SKC,0.01,81.0,WeatherDisplay:10.37,2013-04-20 00:16:00,
2013-04-19 19:21:00,63.3,45.9,30.14,SE,128,6.9,6.9,53,0.00,CLR,SKC,0.01,67.0,WeatherDisplay:10.37,2013-04-20 00:21:00,
2013-04-19 19:26:00,62.9,46.0,30.13,ESE,119,5.8,5.8,54,0.00,CLR,SKC,0.01,53.0,WeatherDisplay:10.37,2013-04-20 00:26:00,
2013-04-19 19:31:00,62.8,45.9,30.13,SSE,164,3.5,3.5,54,0.00,CLR,SKC,0.01,42.0,WeatherDisplay:10.37,2013-04-20 00:31:00,
2013-04-19 19:36:00,62.7,46.3,30.13,SE,144,3.5,3.5,55,0.00,CLR,SKC,0.01,30.0,WeatherDisplay:10.37,2013-04-20 00:36:00,
2013-04-19 19:41:00,62.7,46.3,30.14,South,190,4.6,4.6,55,0.00,CLR,SKC,0.01,21.0,WeatherDisplay:10.37,2013-04-20 00:41:00,
2013-04-19 19:46:00,62.6,46.7,30.14,SSE,148,2.3,2.3,56,0.00,CLR,SKC,0.01,14.0,WeatherDisplay:10.37,2013-04-20 00:46:00,
2013-04-19 19:51:00,62.3,46.4,30.14,SE,136,4.0,4.0,56,0.00,CLR,SKC,0.01,9.0,WeatherDisplay:10.37,2013-04-20 00:51:00,
2013-04-19 19:56:00,62.2,46.3,30.15,SSE,153,1.1,0.0,56,0.00,CLR,SKC,0.01,5.0,WeatherDisplay:10.37,2013-04-20 00:56:00,
2013-04-19 20:01:00,62.0,47.0,30.15,SSW,197,3.5,3.5,58,0.00,CLR,SKC,0.01,0.0,WeatherDisplay:10.37,2013-04-20 01:01:00,
2013-04-19 20:06:00,61.7,46.8,30.15,SSE,155,3.5,0.0,58,0.00,CLR,SKC,0.01,0.0,WeatherDisplay:10.37,2013-04-20 01:06:00,
2013-04-19 20:11:00,61.4,46.5,30.15,SSE,150,3.5,3.5,58,0.00,CLR,SKC,0.01,0.0,WeatherDisplay:10.37,2013-04-20 01:11:00,
2013-04-19 20:16:00,61.3,46.8,30.15,SE,136,2.3,2.3,59,0.00,CLR,SKC,0.01,0.0,WeatherDisplay:10.37,2013-04-20 01:16:00,
2013-04-19 20:21:00,61.2,47.2,30.15,SE,136,2.3,2.3,60,0.00,CLR,SKC,0.01,0.0,WeatherDisplay:10.37,2013-04-20 01:21:00,
2013-04-19 20:26:00,61.2,48.1,30.15,SE,136,1.1,0.0,62,0.00,CLR,SKC,0.01,0.0,WeatherDisplay:10.37,2013-04-20 01:26:00,
2013-04-19 20:31:00,60.9,46.9,30.15,SE,136,0.0,0.0,60,0.00,CLR,SKC,0.01,0.0,WeatherDisplay:10.37,2013-04-20 01:31:00,
2013-04-19 20:36:00,60.8,46.8,30.15,SE,136,1.1,1.1,60,0.00,CLR,SKC,0.01,0.0,WeatherDisplay:10.37,2013-04-20 01:36:00,
2013-04-19 20:41:00,60.8,46.4,30.16,SE,136,1.1,1.1,59,0.00,CLR,SKC,0.01,0.0,WeatherDisplay:10.37,2013-04-20 01:41:00,
2013-04-19 20:46:00,60.8,46.8,30.16,SE,136,0.0,0.3,60,0.00,CLR,SKC,0.01,0.0,WeatherDisplay:10.37,2013-04-20 01:46:00,
2013-04-19 20:51:00,60.8,47.7,30.16,SE,137,1.1,1.1,62,0.00,CLR,SKC,0.01,0.0,WeatherDisplay:10.37,2013-04-20 01:51:00,
2013-04-19 20:56:00,60.6,47.5,30.16,SE,137,2.3,2.3,62,0.00,CLR,SKC,0.01,0.0,WeatherDisplay:10.37,2013-04-20 01:56:00,
2013-04-19 21:01:00,60.3,46.8,30.16,SE,137,2.3,2.3,61,0.00,CLR,SKC,0.01,0.0,WeatherDisplay:10.37,2013-04-20 02:01:00,
2013-04-19 21:06:00,60.2,47.1,30.16,SE,140,2.3,2.3,62,0.00,CLR,SKC,0.01,0.0,WeatherDisplay:10.37,2013-04-20 02:06:00,
2013-04-19 21:11:00,60.1,47.0,30.17,SE,140,0.0,0.2,62,0.00,CLR,SKC,0.01,0.0,WeatherDisplay:10.37,2013-04-20 02:11:00,
2013-04-19 21:16:00,60.1,47.5,30.17,SE,140,0.0,0.0,63,0.00,CLR,SKC,0.01,0.0,WeatherDisplay:10.37,2013-04-20 02:16:00,
2013-04-19 21:21:00,60.0,47.8,30.17,SE,140,0.0,0.0,64,0.00,CLR,SKC,0.01,0.0,WeatherDisplay:10.37,2013-04-20 02:21:00,
2013-04-19 21:26:00,59.9,47.7,30.18,SE,140,0.0,0.0,64,0.00,CLR,SKC,0.01,0.0,WeatherDisplay:10.37,2013-04-20 02:26:00,
2013-04-19 21:31:00,59.8,48.0,30.18,SE,140,0.0,0.0,65,0.00,CLR,SKC,0.01,0.0,WeatherDisplay:10.37,2013-04-20 02:31:00,
2013-04-19 21:36:00,60.0,49.0,30.18,SE,140,1.1,0.0,67,0.00,CLR,SKC,0.01,0.0,WeatherDisplay:10.37,2013-04-20 02:36:00,
2013-04-19 21:41:00,60.3,49.3,30.18,SE,140,1.1,1.1,67,0.00,CLR,SKC,0.01,0.0,WeatherDisplay:10.37,2013-04-20 02:41:00,
2013-04-19 21:46:00,60.2,48.4,30.18,SE,140,1.1,0.0,65,0.00,CLR,SKC,0.01,0.0,WeatherDisplay:10.37,2013-04-20 02:46:00,
2013-04-19 21:51:00,60.2,48.0,30.18,SE,140,1.1,0.0,64,0.00,CLR,SKC,0.01,0.0,WeatherDisplay:10.37,2013-04-20 02:51:00,
2013-04-19 21:56:00,60.2,48.8,30.18,SE,140,0.0,0.0,66,0.00,CLR,SKC,0.01,0.0,WeatherDisplay:10.37,2013-04-20 02:56:00,
2013-04-19 22:01:00,60.1,48.3,30.18,SE,140,0.0,0.0,65,0.00,CLR,SKC,0.01,0.0,WeatherDisplay:10.37,2013-04-20 03:01:00,
2013-04-19 22:06:00,59.9,48.1,30.18,SE,140,0.0,0.0,65,0.00,CLR,SKC,0.01,0.0,WeatherDisplay:10.37,2013-04-20 03:06:00,
2013-04-19 22:11:00,59.8,48.0,30.18,SE,140,0.0,0.0,65,0.00,CLR,SKC,0.01,0.0,WeatherDisplay:10.37,2013-04-20 03:11:00,
2013-04-19 22:16:00,59.8,47.6,30.18,SE,140,0.0,0.0,64,0.00,CLR,SKC,0.01,0.0,WeatherDisplay:10.37,2013-04-20 03:16:00,
2013-04-19 22:21:00,59.7,47.5,30.18,SE,140,0.0,0.0,64,0.00,CLR,SKC,0.01,0.0,WeatherDisplay:10.37,2013-04-20 03:21:00,
2013-04-19 22:26:00,59.7,47.5,30.19,SE,140,0.0,0.0,64,0.00,CLR,SKC,0.01,0.0,WeatherDisplay:10.37,2013-04-20 03:26:00,
2013-04-19 22:31:00,59.6,47.0,30.19,SE,140,0.0,0.0,63,0.00,CLR,SKC,0.01,0.0,WeatherDisplay:10.37,2013-04-20 03:31:00,
2013-04-19 22:36:00,59.7,47.5,30.19,SE,140,0.0,0.0,64,0.00,CLR,SKC,0.01,0.0,WeatherDisplay:10.37,2013-04-20 03:36:00,
2013-04-19 22:41:00,59.8,47.6,30.19,SE,140,0.0,0.0,64,0.00,CLR,SKC,0.01,0.0,WeatherDisplay:10.37,2013-04-20 03:41:00,
2013-04-19 22:46:00,59.8,47.6,30.19,SE,140,0.0,0.0,64,0.00,CLR,SKC,0.01,0.0,WeatherDisplay:10.37,2013-04-20 03:46:00,
2013-04-19 22:51:00,59.9,48.5,30.19,SE,140,0.0,0.0,66,0.00,CLR,SKC,0.01,0.0,WeatherDisplay:10.37,2013-04-20 03:51:00,
2013-04-19 22:56:00,59.8,49.2,30.19,SE,140,0.0,0.0,68,0.00,CLR,SKC,0.01,0.0,WeatherDisplay:10.37,2013-04-20 03:56:00,
2013-04-19 23:01:00,59.8,49.6,30.19,SE,140,0.0,0.0,69,0.00,CLR,SKC,0.01,0.0,WeatherDisplay:10.37,2013-04-20 04:01:00,
2013-04-19 23:06:00,59.6,49.4,30.19,SE,140,0.0,0.0,69,0.00,CLR,SKC,0.01,0.0,WeatherDisplay:10.37,2013-04-20 04:06:00,
2013-04-19 23:11:00,59.4,48.8,30.19,SE,140,0.0,0.0,68,0.00,CLR,SKC,0.01,0.0,WeatherDisplay:10.37,2013-04-20 04:11:00,
2013-04-19 23:16:00,59.5,48.9,30.19,SE,140,0.0,0.0,68,0.00,CLR,SKC,0.01,0.0,WeatherDisplay:10.37,2013-04-20 04:16:00,
2013-04-19 23:21:00,59.6,49.8,30.19,SE,140,0.0,0.0,70,0.00,CLR,SKC,0.01,0.0,WeatherDisplay:10.37,2013-04-20 04:21:00,
2013-04-19 23:26:00,59.4,48.0,30.19,SE,140,0.0,0.0,66,0.00,CLR,SKC,0.01,0.0,WeatherDisplay:10.37,2013-04-20 04:26:00,
2013-04-19 23:31:00,59.5,48.1,30.19,SE,140,0.0,0.0,66,0.00,CLR,SKC,0.01,0.0,WeatherDisplay:10.37,2013-04-20 04:31:00,
2013-04-19 23:36:00,59.5,48.1,30.19,SE,140,0.0,0.0,66,0.00,CLR,SKC,0.01,0.0,WeatherDisplay:10.37,2013-04-20 04:36:00,
2013-04-19 23:41:00,59.5,47.7,30.19,SE,140,0.0,0.0,65,0.00,CLR,SKC,0.01,0.0,WeatherDisplay:10.37,2013-04-20 04:41:00,
2013-04-19 23:46:00,59.6,47.0,30.19,SE,140,1.1,1.1,63,0.00,CLR,SKC,0.01,0.0,WeatherDisplay:10.37,2013-04-20 04:46:00,
2013-04-19 23:51:00,59.6,47.0,30.19,SE,140,1.1,0.0,63,0.00,CLR,SKC,0.01,0.0,WeatherDisplay:10.37,2013-04-20 04:51:00,
2013-04-19 23:56:00,59.8,46.7,30.19,SE,140,1.1,1.1,62,0.00,CLR,SKC,0.01,0.0,WeatherDisplay:10.37,2013-04-20 04:56:00,